Cleveland, OH

9:38 PM EST on February 26, 2017 (GMT -0500)
Burke Lakefront

Weather History for KBKL - February, 2013

Change the Weather History Date:

Tuesday, February 5, 2013

  Actual Average Record
Temperature  
Mean Temperature 24 °F -  
Max Temperature 28 °F 36 °F 60 °F (2008)
Min Temperature 21 °F 24 °F 1 °F (2007)
Degree Days  
Heating Degree Days 40    
Moisture  
Dew Point 21 °F    
Average Humidity 86    
Maximum Humidity 93    
Minimum Humidity 72    
Precipitation  
Precipitation 0.02 in - - ()
Sea Level Pressure  
Sea Level Pressure 29.90 in    
Wind  
Wind Speed 3 mph (WSW)    
Max Wind Speed 15 mph    
Max Gust Speed -    
Visibility 7 miles    
Events Snow    
Averages and records for this station are not official NWS values.
T = Trace of Precipitation, MM = Missing Value Source: NWS Daily Summary

Daily Weather History Graph

Daily Weather History Graph

Search for Another Location

Airport or City:

Trip Planner

Search our weather history database for the weather conditions in past years. The results will help you decide how hot, cold, wet, or windy it might be!

Date:

Astronomy

Feb. 05, 2013 Rise Set
Actual Time 7:33 AM EST 5:48 PM EST
Civil Twilight 7:04 AM EST 6:17 PM EST
Nautical Twilight 6:31 AM EST 6:50 PM EST
Astronomical Twilight 5:59 AM EST 7:22 PM EST
Moon 3:15 AM EST (2/5) 1:02 PM EST (2/5)
Length of Visible Light 11h 12m
Length of Day
10h 14m
Waning Crescent, 27% of the Moon is Illuminated
Feb 5
Waning Crescent
Feb 10
New
Feb 17
First Quarter
Feb 25
Full
Mar 4
Last Quarter

Hourly Weather History & Observations

Time (EST) Temp. Windchill Dew Point Humidity Pressure Visibility Wind Dir Wind Speed Gust Speed Precip Events Conditions
12:40 AM 24.8 °F - 21.2 °F 86% 29.87 in 5.0 mi Calm Calm - N/A   Overcast
12:53 AM 24.1 °F - 21.9 °F 91% 29.90 in 5.0 mi Calm Calm - N/A   Overcast
1:51 AM 24.8 °F - 21.2 °F 86% 29.88 in 5.0 mi Calm Calm - N/A   Overcast
1:53 AM 24.1 °F 19.7 °F 21.9 °F 91% 29.91 in 5.0 mi North 3.5 mph - N/A   Overcast
2:11 AM 24.8 °F 19.1 °F 21.2 °F 86% 29.88 in 4.0 mi NNE 4.6 mph - 0.00 in Snow Light Snow
2:53 AM 23.0 °F 15.8 °F 21.0 °F 92% 29.91 in 6.0 mi NE 5.8 mph - 0.00 in   Overcast
3:53 AM 23.0 °F 17.0 °F 21.0 °F 92% 29.91 in 6.0 mi ENE 4.6 mph - N/A   Overcast
4:53 AM 23.0 °F 15.8 °F 19.9 °F 88% 29.93 in 4.0 mi ENE 5.8 mph - 0.00 in Snow Light Snow
5:12 AM 23.0 °F 15.8 °F 19.4 °F 86% 29.90 in 4.0 mi NE 5.8 mph - 0.00 in Snow Light Snow
5:53 AM 21.9 °F 15.7 °F 19.0 °F 89% 29.91 in 4.0 mi NE 4.6 mph - 0.00 in Snow Light Snow
6:45 AM 21.2 °F 14.9 °F 19.4 °F 93% 29.89 in 9.0 mi NE 4.6 mph - 0.00 in   Mostly Cloudy
6:53 AM 21.0 °F 16.2 °F 19.0 °F 92% 29.91 in 10.0 mi ENE 3.5 mph - 0.00 in   Mostly Cloudy
7:53 AM 21.9 °F 17.2 °F 19.0 °F 89% 29.93 in 10.0 mi NE 3.5 mph - N/A   Overcast
9:53 AM 24.1 °F 19.7 °F 19.0 °F 81% 29.93 in 6.0 mi SSE 3.5 mph - N/A   Haze
10:07 AM 24.8 °F - 19.4 °F 80% 29.91 in 6.0 mi Calm Calm - N/A   Overcast
10:53 AM 25.0 °F 19.3 °F 19.9 °F 81% 29.94 in 10.0 mi South 4.6 mph - N/A   Mostly Cloudy
11:51 AM 26.6 °F - 19.4 °F 74% 29.90 in 10.0 mi Calm Calm - N/A   Overcast
11:53 AM 26.1 °F 21.9 °F 19.9 °F 78% 29.92 in 10.0 mi WNW 3.5 mph - N/A   Overcast
12:14 PM 26.6 °F - 19.4 °F 74% 29.88 in 10.0 mi Calm Calm - N/A   Scattered Clouds
12:32 PM 26.6 °F - 19.4 °F 74% 29.87 in 10.0 mi Calm Calm - N/A   Mostly Cloudy
12:53 PM 26.1 °F 17.6 °F 21.0 °F 81% 29.88 in 9.0 mi West 8.1 mph - N/A   Overcast
1:53 PM 25.0 °F 16.3 °F 21.9 °F 88% 29.88 in 7.0 mi West 8.1 mph - 0.00 in   Mostly Cloudy
2:53 PM 24.1 °F 19.7 °F 21.0 °F 88% 29.88 in 10.0 mi West 3.5 mph - N/A   Mostly Cloudy
3:23 PM 23.0 °F 17.0 °F 21.2 °F 93% 29.86 in 10.0 mi West 4.6 mph - N/A   Mostly Cloudy
3:39 PM 23.0 °F 18.4 °F 21.2 °F 93% 29.86 in 10.0 mi West 3.5 mph - N/A   Scattered Clouds
3:53 PM 23.0 °F - 21.0 °F 92% 29.88 in 10.0 mi Calm Calm - N/A   Partly Cloudy
4:53 PM 23.0 °F - 21.0 °F 92% 29.88 in 10.0 mi Calm Calm - N/A   Overcast
5:53 PM 24.1 °F - 21.0 °F 88% 29.88 in 10.0 mi Calm Calm - N/A   Overcast
6:53 PM 26.1 °F - 21.0 °F 81% 29.89 in 10.0 mi Calm Calm - N/A   Overcast
7:53 PM 28.0 °F 21.7 °F 19.9 °F 72% 29.92 in 10.0 mi WSW 5.8 mph - N/A   Overcast
8:07 PM 26.6 °F 14.7 °F 19.4 °F 74% 29.90 in 1.8 mi SW 15.0 mph - 0.00 in Snow Light Snow
8:29 PM 26.6 °F 18.2 °F 24.8 °F 93% 29.90 in 1.0 mi SW 8.1 mph - 0.01 in Snow Light Snow
8:53 PM 26.1 °F 19.4 °F 24.1 °F 92% 29.94 in 1.2 mi SW 5.8 mph - 0.01 in Snow Light Snow
9:26 PM 26.6 °F 17.5 °F 24.8 °F 93% 29.91 in 2.0 mi South 9.2 mph - 0.01 in Snow Light Snow
9:36 PM 26.6 °F 20.0 °F 23.0 °F 86% 29.91 in 5.0 mi South 5.8 mph - 0.01 in   Overcast
9:53 PM 25.0 °F 17.1 °F 23.0 °F 92% 29.94 in 5.0 mi South 6.9 mph - 0.01 in   Overcast
11:28 PM 26.6 °F 15.7 °F 24.8 °F 93% 29.93 in 8.0 mi SW 12.7 mph - N/A   Overcast
11:53 PM 28.0 °F 17.5 °F 24.1 °F 85% 29.95 in 8.0 mi WSW 12.7 mph - N/A   Overcast